Regional Weather Roundup
Issued by NWS

Home | Current Version | Previous Version | Graphics & Text | Print | Product List | Glossary On
Versions: 1 2 3 4 5 6 7 8 9 10 11 12 13 14 15 16 17 18 19 20 21 22 23 24 25 26 27 28 29 30 31 32 33 34 35 36 37 38 39 40 41 42 43 44 45 46 47 48 49 50
000
ASUS43 KTOP 012259
RWRKS

WEATHER ROUNDUP FOR KANSAS
NATIONAL WEATHER SERVICE GOODLAND KS
600 PM CDT TUE SEP 01 2015

NOTE:  "FAIR" INDICATES FEW OR NO CLOUDS BELOW 12,000 FEET WITH NO
SIGNIFICANT WEATHER AND/OR OBSTRUCTIONS TO VISIBILITY.

KSZ001>006-013>018-027>032-041>047-020000-
NORTHWEST KANSAS

CITY           SKY/WX    TMP DP  RH WIND       PRES   REMARKS
GOODLAND       SUNNY     91  48  22 VRB5      29.95F
HAYS           SUNNY     99  55  23 SW18G25   29.87S HX  97
HILL CITY      MOSUNNY   96  58  27 S12       29.87S HX  95
RUSSELL        SUNNY     97  58  27 S23G32    29.86F HX  96
$$

KSZ061>065-074>080-084>089-020000-
SOUTHWEST KANSAS

CITY           SKY/WX    TMP DP  RH WIND       PRES   REMARKS
DODGE CITY     MOSUNNY   94  52  24 SW17G26   29.93S
ELKHART          N/A     90  59  35 S12         N/A
GARDEN CITY    SUNNY     94  55  26 SW18G26   29.91F
GREAT BEND     SUNNY     99  57  25 S23       29.88S HX  97
LIBERAL        SUNNY     93  55  27 S18       29.96R
$$

KSZ066>073-081>083-090>101-020000-
SOUTHEAST KANSAS

CITY           SKY/WX    TMP DP  RH WIND       PRES   REMARKS
CHANUTE        SUNNY     86  69  56 S12       30.00R
COFFEYVILLE    SUNNY     86  69  56 S12       29.99S
HUTCHINSON     SUNNY     94  60  32 S20       29.92S
NEWTON         SUNNY     90  61  37 S18G24    29.97S
PARSONS        SUNNY     85  69  58 S9        30.01R
WICHITA INTL   MOSUNNY   91  64  40 S18       29.93S
WICHITA JABRA  SUNNY     89  65  44 S17G25    29.94F
WINFIELD       SUNNY     89  67  47 SE16      29.97S
$$

KSZ007>012-019>026-033>040-048>060-102>105-020000-
NORTHEAST KANSAS

CITY           SKY/WX    TMP DP  RH WIND       PRES   REMARKS
CONCORDIA      MOSUNNY   90  64  42 S16G25    29.89S
EMPORIA        MOSUNNY   87  64  46 S16G25    29.97S
LAWRENCE       SUNNY     88  66  48 S15       29.97S
MANHATTAN      SUNNY     92  62  36 S15       29.91S
OLATHE IND     SUNNY     85  68  56 S10       30.00F
OLATHE EXE     SUNNY     84  67  56 S10       29.99S
SALINA         SUNNY     94  62  34 S23       29.89S
TOPEKA BILLARD SUNNY     88  66  48 S15       29.96S
TOPEKA FORBES  SUNNY     88  67  49 S14       29.97S
$$



USA.gov is the U.S. government's official web portal to all federal, state and local government web resources and services.